Location: The Saddle
(36.8333°N, 80.3417°W)
Time: 07:24:47
(UTC-04:00)

Vanguard 2 Rocket - Pass Details

Date: 05 February 2023
Orbit: 555 x 3316 km, 32.9° (Epoch: 27 March)

Event Time Altitude Azimuth Distance (km) Brightness Sun altitude
Rises 12:00:47 0° 263° (W) 3,225 9.7 36.7°
Reaches altitude 10° 12:03:32 10° 258° (WSW) 2,077 8.9 36.8°
Maximum altitude 12:07:50 50° 183° (S) 721 8.4 36.9°
Drops below altitude 10° 12:11:39 10° 106° (ESE) 1,834 8.9 37.0°
Sets 12:13:56 0° 101° (E) 2,800 9.6 37.1°
